Temperature
17 17 17 17 17 16 16 16 16 16 16 16 17 17 17 17 17 17 17 17 17 17 17 17 17 16 16 16 16 16 16 16 16 16 16 16 16 16 16 16 16 16 16
17 17 17 17 16 16 16 16 16 16 16 16 17 17 17 17 17 17 17 17 17 17 17 16 16 16 16 16 16 16 16 16 16 16 16 16 16 16 16 16 16 16 16
17 17 17 17 16 16 17 16 16 16 16 17 17 17 17 17 17 17 17 16 16 16 16 16 16 16 16 16 16 16 16 16 16 16 16 16 16 16 16 16 15 15 15
17 17 17 16 16 16 16 16 16 16 16 17 17 17 17 17 17 16 17 16 16 16 16 16 16 16 16 16 16 16 16 16 16 16 16 16 16 16 16 16 16 15 15
17 17 16 16 17 16 16 16 16 16 16 16 17 16 17 17 16 17 16 16 16 16 16 16 16 16 16 16 16 16 16 16 16 16 16 16 16 16 16 16 16 15 15
17 17 16 17 16 16 16 16 16 16 16 16 17 16 16 16 16 16 16 16 16 16 16 16 16 16 16 16 16 16 16 16 15 15 15 15 15 15 15 15 15 15 15
17 17 16 16 16 16 16 16 16 16 16 16 16 16 16 16 16 16 16 16 16 16 16 16 16 16 15 16 15 15 15 15 15 15 15 15 15 15 15 15 15 15 15
17 16 16 16 16 16 16 16 16 16 16 16 16 17 17 17 16 17 16 16 16 16 16 16 16 15 15 15 15 15 15 15 15 15 15 15 15 15 15 15 15 15 15
17 16 16 16 16 16 16 16 16 15 16 16 16 17 18 19 18 17 16 16 16 16 16 16 15 15 15 15 15 15 15 15 15 15 15 15 15 15 15 15 15 15 15
16 16 16 16 16 16 16 16 15 15 16 16 16 16 16 17 18 18 17 16 16 16 16 16 16 15 15 15 15 15 15 15 15 15 14 14 14 14 14 14 14 15 15
16 16 16 16 16 16 15 15 15 15 15 16 16 16 16 16 17 17 18 17 16 16 16 15 15 15 15 15 15 14 15 15 14 14 14 14 14 14 14 14 14 14 14
16 16 16 16 16 15 15 15 15 15 15 15 16 16 16 17 17 17 18 17 17 16 15 15 15 15 15 15 15 15 14 14 14 14 14 14 14 14 14 14 14 14 14
16 16 16 16 15 15 15 15 15 15 15 15 15 15 16 16 16 17 17 17 17 17 15 15 15 15 15 15 14 14 14 14 14 14 14 14 14 14 14 14 14 14 14
16 16 16 16 15 15 15 15 15 15 15 15 15 15 15 15 15 16 16 17 17 17 16 16 15 15 15 15 14 14 14 14 14 14 14 14 14 14 14 13 13 13 13
16 16 16 16 15 15 15 15 15 15 15 15 15 15 15 15 15 15 15 16 16 17 17 16 15 15 14 14 14 14 13 13 14 14 14 14 13 13 13 13 13 13 13
16 16 15 15 15 15 15 15 14 15 14 14 14 14 14 14 15 14 15 15 15 16 17 17 15 15 14 14 14 14 13 14 14 14 14 13 13 13 13 13 13 13 13
16 16 16 16 15 15 15 15 14 14 14 14 14 14 14 14 14 14 14 14 15 15 15 16 15 14 14 14 14 14 14 13 14 14 14 14 13 13 13 13 13 13 13
16 16 16 16 15 15 15 15 15 14 14 14 14 14 14 14 14 14 14 14 14 14 14 15 15 14 14 13 13 14 14 14 14 14 14 14 14 13 13 13 13 13 13
16 16 16 16 16 15 15 15 15 14 14 14 14 14 14 14 14 14 14 14 14 14 14 14 14 14 14 13 13 13 13 13 13 14 14 14 14 14 14 13 13 13 13
16 16 16 16 16 15 15 15 15 15 14 14 14 14 14 14 14 14 14 14 13 14 14 14 14 14 14 13 13 13 14 14 13 14 14 13 13 14 14 14 14 13 13
16 16 16 16 16 15 15 15 15 15 15 14 14 14 14 14 14 14 14 13 13 13 14 14 14 14 14 14 14 14 14 14 14 13 13 13 13 13 13 13 13 13 13
16 16 16 16 16 15 15 15 15 15 14 14 14 14 14 14 14 14 14 14 13 13 13 13 14 14 14 13 13 13 13 13 14 14 13 13 13 13 13 13 13 13 13
16 16 16 16 16 15 16 16 15 15 14 14 14 14 14 14 14 14 14 14 14 14 13 13 13 13 13 13 13 13 13 12 13 13 13 13 13 13 13 13 13 13 13
16 16 16 16 16 16 16 16 15 15 15 14 14 14 14 14 14 13 13 13 13 13 13 13 13 13 13 13 12 12 12 12 12 12 12 12 13 13 13 13 13 13 13
16 16 16 16 16 16 16 16 15 15 14 14 14 14 14 14 14 14 13 13 13 13 13 13 13 13 13 13 12 12 12 12 12 13 12 12 12 12 13 13 13 12 12
16 16 16 16 15 15 15 15 15 14 14 14 14 14 14 14 13 13 13 13 13 13 12 12 12 12 12 12 12 12 11 11 12 12 12 12 12 12 12 12 12 12 12
Wind_Speed
6 6 5 5 5 5 5 4 4 4 3 2 2 3 2 2 3 3 8 9 7 7 8 8 7 7 7 7 7 7 7 6 6 7 6 6 7 7 7 7 6 6 6
7 6 6 5 5 5 4 3 4 3 3 2 2 3 2 3 3 3 6 9 9 7 7 7 7 7 7 7 7 7 7 7 8 8 8 8 8 8 8 7 7 7 7
8 7 5 5 5 6 5 4 4 3 3 3 3 3 3 2 3 3 3 4 8 9 8 7 7 7 7 7 7 7 8 8 9 9 9 9 9 9 9 9 8 8 8
9 7 6 5 6 6 5 4 4 4 3 3 3 2 3 3 3 3 4 4 4 6 9 8 7 6 7 7 7 8 9 10 10 10 11 11 11 11 10 10 10 10 10
9 8 5 5 6 5 4 4 4 3 4 3 3 3 3 3 3 3 3 4 4 4 5 10 8 6 6 6 7 7 8 9 10 11 11 11 11 12 12 12 12 12 12
10 8 6 6 6 5 4 3 4 3 3 3 3 2 2 2 3 3 4 4 5 5 4 5 7 8 7 5 5 6 7 8 8 9 10 11 11 12 12 13 13 13 13
11 8 6 7 6 5 5 6 5 5 4 4 4 4 4 4 3 3 3 3 4 4 3 3 3 3 6 8 5 4 5 6 6 7 8 9 10 11 12 12 13 14 14
10 10 7 7 6 5 6 5 5 4 4 4 4 4 4 5 4 3 4 4 4 4 5 4 3 2 2 4 7 5 4 4 4 4 5 7 8 8 9 11 12 13 14
10 9 8 7 6 7 6 6 6 6 5 5 4 4 3 3 5 5 4 4 4 3 4 4 4 3 3 3 4 7 5 3 4 4 4 5 6 7 7 7 9 11 12
10 10 9 8 7 6 6 7 7 5 5 5 4 3 3 2 3 4 6 5 4 4 3 4 4 4 4 4 2 4 4 3 3 2 3 4 5 5 5 5 6 8 10
9 10 10 8 7 6 6 5 5 6 6 5 5 5 4 3 6 5 4 5 5 5 5 5 4 4 4 4 5 5 5 4 3 2 2 3 5 5 6 6 7 7 8
8 10 10 8 8 6 7 6 6 6 5 4 4 5 5 5 6 6 5 6 5 4 4 3 5 5 5 5 4 7 6 5 4 3 2 2 3 4 5 6 7 8 8
9 10 9 8 7 7 7 6 6 5 5 5 5 5 5 5 4 5 5 5 5 4 4 5 5 5 5 5 5 7 7 6 5 4 5 5 5 5 6 7 7 8 8
9 10 10 9 8 8 8 7 6 6 5 5 5 4 4 4 4 5 5 5 6 6 6 6 4 5 5 5 4 7 7 8 7 7 7 7 8 8 8 9 9 9 10
9 10 10 10 9 9 8 7 5 6 5 6 6 6 5 4 4 4 5 6 6 6 5 6 6 5 6 5 4 7 7 7 8 9 10 10 10 10 10 11 11 11 12
10 11 11 10 10 9 9 8 7 6 6 6 4 4 5 5 4 4 5 5 6 7 6 3 4 5 4 6 7 8 9 7 11 12 12 12 12 12 12 13 13 13 14
11 12 11 11 11 10 10 9 8 7 8 7 6 7 7 5 5 5 5 5 6 6 7 6 4 4 5 7 5 8 10 10 11 14 13 12 13 14 14 14 15 15 15
12 12 12 11 11 11 10 10 10 9 9 8 8 8 8 7 7 6 5 6 6 5 7 7 6 6 7 8 7 8 10 10 10 10 14 14 15 15 16 16 16 16 16
12 12 12 12 12 12 12 11 11 10 9 9 9 9 9 8 9 8 7 7 7 7 7 7 8 6 7 7 8 9 11 9 12 12 15 18 18 18 19 19 19 18 18
13 13 13 12 12 12 12 12 11 10 10 10 9 9 10 10 10 10 9 9 8 8 8 9 9 8 8 8 7 9 9 9 9 11 11 12 15 19 21 21 21 21 21
13 13 13 12 12 11 12 12 12 12 11 10 11 11 11 10 9 9 9 9 9 9 9 9 9 9 9 7 8 8 9 8 9 9 9 10 11 12 14 21 24 23 22
13 12 13 13 13 11 10 11 11 11 11 11 11 11 11 12 12 12 12 11 10 11 11 10 10 10 9 9 8 9 9 10 10 8 8 10 10 11 11 14 13 18 21
13 13 13 12 12 11 11 13 14 12 11 11 11 11 11 11 12 13 14 15 15 15 14 13 14 13 11 10 10 11 11 11 11 9 8 12 11 12 12 14 12 15 18
11 11 12 12 11 11 13 14 14 13 12 11 11 11 11 11 11 11 11 12 13 14 15 15 15 15 14 11 10 12 12 12 13 12 11 13 13 13 12 13 13 17 20
11 11 11 11 11 10 12 13 12 11 11 12 12 12 12 12 9 8 11 13 13 12 13 16 16 15 14 12 10 10 11 12 13 12 9 11 13 13 13 13 14 17 21
10 10 9 9 10 10 10 12 13 10 11 11 11 11 10 11 8 10 12 13 14 13 11 11 12 15 16 16 15 13 13 13 13 12 10 9 12 11 12 12 11 11 13
Wind_Direction
162 152 148 149 148 141 157 163 147 137 143 145 133 120 112 102 125 140 130 151 167 173 176 177 179 184 185 187 187 188 187 186 184 180 180 180 180 182 180 178 175 176 175
161 159 160 162 155 157 151 164 148 160 162 145 148 129 143 131 134 166 146 154 168 176 180 181 186 193 197 199 199 201 202 200 197 197 197 196 197 199 196 195 192 191 189
165 168 166 171 157 151 154 170 159 171 169 162 154 150 152 144 142 159 164 160 163 172 180 185 193 200 205 207 211 213 213 209 206 207 208 208 208 210 208 207 207 205 202
171 177 174 168 159 169 173 168 188 183 168 177 164 168 162 157 167 179 180 175 178 168 172 178 191 202 208 208 214 217 218 218 217 214 215 215 215 216 216 216 216 216 215
177 182 176 154 171 180 184 192 171 194 175 178 176 173 183 175 174 188 186 181 176 187 170 162 181 196 206 212 215 218 217 219 222 220 219 220 221 220 221 221 221 222 224
180 184 174 168 187 187 189 182 160 178 183 189 193 157 185 173 195 178 203 188 181 190 190 178 184 185 188 204 211 214 214 215 219 225 224 226 226 226 227 228 227 225 226
182 188 184 173 196 195 192 184 180 172 184 183 188 179 176 184 183 192 206 204 182 183 180 193 214 198 177 176 184 197 203 208 214 221 224 228 229 227 229 231 233 233 231
186 189 191 191 195 189 188 190 198 201 184 194 213 201 192 182 189 188 190 197 196 189 189 185 175 206 249 177 149 165 182 202 209 214 220 223 226 231 234 236 235 237 238
191 193 191 199 192 198 190 195 196 209 201 196 227 245 237 214 164 169 188 191 196 206 207 180 189 185 208 206 170 159 166 185 199 207 213 217 223 230 238 242 242 240 239
189 189 193 195 198 202 187 202 196 207 215 208 198 245 287 329 252 181 184 184 190 210 220 223 200 192 207 209 166 129 152 169 179 201 219 221 222 229 239 249 255 251 246
189 190 191 190 194 199 192 204 190 217 218 228 215 209 215 221 248 254 206 186 197 203 207 216 222 220 210 218 213 156 151 165 171 186 212 227 231 236 244 254 259 259 257
188 191 191 190 193 191 187 197 201 206 226 229 238 229 226 224 224 232 228 220 216 201 203 223 229 225 223 220 203 139 167 183 194 209 222 234 240 243 252 259 263 264 264
190 190 191 190 191 189 189 191 195 202 203 208 224 232 237 243 245 244 248 239 233 214 203 220 219 224 225 220 186 170 190 197 211 225 235 243 248 253 258 263 266 268 269
192 183 187 188 189 188 188 186 194 192 196 206 217 230 236 234 233 238 247 248 240 233 219 223 209 216 226 227 177 204 207 197 219 235 243 249 252 255 259 262 265 266 266
185 182 188 189 189 188 189 191 202 197 195 207 206 205 228 221 226 233 241 251 257 253 237 205 220 205 219 228 201 236 243 203 221 239 246 249 252 256 260 262 263 264 264
184 182 190 193 192 192 193 200 199 197 202 209 220 217 223 222 215 225 231 238 253 266 269 237 217 221 225 249 212 238 250 221 229 236 242 248 253 256 259 262 263 264 263
185 188 191 195 196 197 197 201 210 196 207 208 211 212 218 233 227 223 225 232 240 249 258 258 236 223 226 256 246 246 250 250 242 215 227 243 251 255 258 260 262 263 263
190 192 195 199 201 201 201 204 211 206 209 212 213 215 218 214 218 236 232 233 236 245 253 259 251 237 228 237 244 252 256 252 261 215 215 236 246 251 254 257 259 260 260
194 195 197 201 204 205 206 209 212 212 215 217 216 217 219 219 219 223 228 236 233 229 237 251 251 246 241 238 242 247 252 255 265 251 221 229 237 244 250 253 255 256 256
197 198 200 203 206 208 210 211 213 216 220 222 222 223 224 224 224 225 226 234 241 243 237 245 252 247 241 237 241 254 256 242 250 264 260 247 236 236 243 246 248 250 252
202 202 204 206 208 211 213 211 213 216 219 223 224 226 228 231 236 235 240 234 232 238 242 243 248 250 247 245 247 253 260 265 256 255 262 260 249 246 241 238 238 242 245
205 204 207 209 210 215 196 199 217 221 221 225 228 229 230 224 227 229 247 258 259 247 248 252 253 253 256 255 257 262 265 267 269 259 259 266 266 265 261 259 237 225 234
205 207 209 211 214 212 183 192 210 228 229 230 232 232 236 231 218 230 227 230 243 249 252 256 261 263 262 257 259 260 259 265 272 279 274 273 270 267 266 264 237 229 234
206 207 210 212 215 211 187 193 200 222 236 236 235 235 238 243 235 233 239 237 238 237 233 237 250 259 263 268 260 259 268 265 263 260 258 266 270 271 272 270 247 231 236
206 209 211 213 217 215 189 191 195 219 229 236 238 238 239 241 232 222 240 247 249 250 238 232 239 252 266 269 264 263 261 262 265 265 251 259 272 276 274 271 262 233 231
207 211 214 217 219 223 195 189 196 222 231 235 235 237 233 238 237 210 234 246 251 253 257 248 236 244 252 251 239 242 254 260 266 270 266 260 270 276 277 273 270 264 248
Height
1568 1570 1572 1573 1576 1577 1578 1579 1581 1581 1582 1583 1585 1585 1586 1587 1588 1589 1588 1588 1589 1589 1590 1591 1591 1592 1593 1593 1594 1595 1595 1596 1597 1597 1598 1599 1599 1600 1600 1601 1601 1602 1602
1568 1569 1571 1573 1575 1576 1578 1579 1580 1581 1582 1583 1584 1585 1586 1587 1587 1588 1589 1589 1589 1589 1590 1591 1591 1592 1593 1593 1594 1594 1595 1596 1596 1597 1598 1598 1599 1600 1600 1601 1601 1602 1602
1567 1569 1571 1572 1574 1575 1576 1578 1579 1580 1581 1583 1584 1584 1585 1586 1587 1588 1589 1590 1589 1589 1590 1590 1591 1591 1592 1592 1593 1594 1594 1595 1595 1596 1597 1597 1598 1599 1599 1600 1600 1601 1601
1566 1568 1570 1572 1573 1575 1576 1577 1579 1580 1581 1582 1583 1584 1585 1585 1586 1587 1589 1589 1590 1590 1590 1590 1590 1591 1591 1591 1592 1592 1593 1594 1594 1595 1595 1596 1597 1597 1598 1599 1599 1600 1601
1565 1567 1569 1571 1572 1574 1575 1577 1578 1579 1580 1581 1583 1583 1584 1585 1585 1587 1588 1588 1589 1589 1590 1589 1589 1590 1590 1591 1591 1591 1591 1592 1592 1593 1594 1594 1595 1596 1596 1597 1598 1598 1599
1563 1566 1568 1569 1571 1573 1574 1575 1576 1577 1579 1580 1582 1583 1583 1584 1585 1586 1587 1588 1588 1589 1589 1589 1589 1589 1589 1589 1589 1590 1590 1590 1590 1591 1591 1592 1593 1593 1594 1595 1595 1596 1597
1562 1564 1567 1568 1570 1571 1572 1574 1575 1576 1578 1579 1581 1582 1583 1583 1584 1584 1586 1587 1587 1588 1588 1588 1589 1589 1589 1588 1588 1588 1588 1588 1589 1589 1589 1590 1590 1591 1591 1592 1593 1593 1594
1560 1563 1564 1566 1568 1569 1571 1572 1574 1576 1577 1578 1580 1581 1582 1584 1583 1584 1584 1585 1586 1587 1587 1587 1587 1587 1588 1588 1587 1587 1587 1587 1587 1587 1587 1587 1587 1588 1588 1589 1589 1590 1591
1558 1561 1562 1565 1566 1568 1570 1571 1572 1574 1576 1577 1578 1580 1580 1579 1581 1583 1583 1584 1584 1585 1586 1586 1586 1586 1587 1587 1586 1585 1585 1585 1585 1585 1585 1585 1585 1585 1585 1586 1586 1586 1587
1556 1558 1560 1562 1564 1566 1568 1569 1571 1572 1574 1575 1576 1577 1578 1579 1580 1581 1582 1583 1583 1583 1584 1585 1585 1585 1585 1585 1584 1584 1584 1583 1583 1583 1583 1582 1582 1582 1582 1582 1582 1583 1583
1554 1556 1558 1560 1562 1564 1565 1567 1568 1570 1572 1574 1575 1576 1577 1577 1579 1580 1580 1581 1582 1582 1583 1583 1584 1584 1584 1584 1583 1582 1582 1581 1581 1581 1581 1580 1580 1580 1579 1579 1579 1579 1579
1551 1554 1556 1558 1560 1562 1563 1564 1566 1567 1569 1570 1572 1574 1575 1576 1577 1578 1578 1579 1580 1581 1581 1581 1581 1582 1582 1582 1581 1580 1580 1580 1579 1579 1579 1578 1578 1577 1577 1576 1576 1576 1575
1549 1551 1554 1555 1557 1559 1560 1562 1563 1565 1566 1568 1569 1571 1573 1574 1575 1576 1577 1577 1578 1579 1578 1579 1579 1579 1580 1580 1579 1578 1578 1578 1577 1577 1577 1576 1575 1575 1574 1573 1573 1572 1572
1547 1549 1551 1553 1555 1557 1559 1560 1562 1563 1564 1565 1567 1568 1569 1571 1572 1573 1575 1575 1576 1576 1576 1577 1577 1577 1577 1577 1577 1576 1576 1575 1575 1575 1574 1573 1573 1572 1571 1570 1570 1569 1569
1544 1546 1549 1551 1553 1555 1556 1558 1560 1560 1562 1563 1565 1565 1567 1568 1569 1570 1572 1573 1574 1573 1574 1574 1574 1574 1574 1574 1574 1573 1574 1572 1572 1571 1571 1570 1569 1568 1568 1567 1566 1566 1565
1542 1544 1546 1549 1551 1552 1554 1556 1557 1558 1559 1561 1562 1563 1564 1566 1567 1568 1569 1570 1571 1572 1571 1571 1571 1572 1571 1572 1570 1570 1570 1569 1568 1568 1567 1566 1565 1565 1564 1563 1562 1562 1561
1539 1542 1544 1546 1548 1550 1552 1553 1556 1556 1557 1558 1559 1560 1561 1562 1564 1565 1566 1567 1568 1569 1569 1569 1569 1568 1567 1567 1567 1566 1566 1565 1565 1563 1563 1562 1561 1560 1560 1559 1558 1557 1556
1537 1539 1542 1544 1546 1547 1549 1551 1552 1554 1555 1556 1557 1558 1559 1560 1560 1562 1563 1564 1564 1565 1565 1566 1565 1565 1563 1563 1562 1562 1563 1563 1561 1560 1558 1557 1556 1555 1554 1554 1553 1552 1551
1534 1536 1539 1541 1543 1545 1546 1548 1549 1551 1552 1553 1554 1555 1556 1557 1557 1558 1559 1560 1561 1561 1561 1561 1561 1561 1561 1560 1559 1558 1558 1557 1556 1556 1553 1552 1551 1550 1549 1548 1547 1546 1546
1531 1533 1535 1538 1540 1541 1543 1545 1546 1548 1549 1550 1551 1552 1553 1553 1554 1555 1555 1555 1556 1557 1557 1557 1557 1557 1557 1556 1555 1555 1554 1553 1551 1551 1550 1548 1546 1544 1543 1542 1541 1540 1539
1528 1530 1532 1534 1536 1538 1539 1541 1543 1544 1545 1546 1547 1547 1548 1549 1550 1550 1552 1552 1552 1553 1553 1553 1553 1553 1553 1552 1551 1550 1550 1549 1547 1546 1545 1544 1542 1540 1538 1536 1534 1534 1533
1524 1526 1528 1530 1531 1534 1535 1537 1538 1540 1541 1542 1542 1543 1544 1544 1544 1545 1546 1547 1547 1548 1549 1549 1549 1548 1548 1548 1547 1546 1545 1544 1543 1542 1540 1538 1537 1535 1534 1532 1530 1527 1526
1519 1521 1523 1525 1527 1529 1530 1532 1534 1535 1537 1537 1538 1538 1540 1541 1540 1540 1540 1541 1541 1541 1542 1543 1543 1542 1542 1542 1541 1540 1539 1538 1536 1536 1534 1532 1531 1529 1527 1526 1523 1521 1520
1514 1516 1518 1520 1522 1524 1525 1527 1529 1530 1531 1532 1533 1533 1534 1535 1535 1535 1536 1536 1535 1535 1535 1535 1535 1535 1536 1535 1535 1534 1533 1531 1529 1528 1527 1525 1524 1522 1521 1519 1516 1514 1512
1510 1512 1514 1515 1517 1518 1520 1522 1524 1524 1525 1526 1527 1528 1528 1529 1529 1529 1530 1530 1530 1530 1529 1528 1528 1528 1528 1528 1527 1527 1526 1525 1523 1522 1521 1519 1516 1515 1513 1511 1509 1507 1505
1505 1507 1509 1510 1512 1513 1515 1516 1518 1519 1520 1521 1521 1521 1521 1522 1523 1523 1523 1523 1523 1523 1523 1523 1521 1520 1520 1520 1519 1519 1518 1517 1516 1514 1514 1512 1510 1509 1506 1504 1503 1501 1498